{"data":{"norad_id":54840,"epoch":"2026-05-25T03:18:05.793984Z","epoch_age_seconds":69931,"freshness":"FRESH","line1":"1 54840U 22177W   26145.13756706  .00001468  00000+0  62834-4 0  9998","line2":"2 54840  43.0038  61.0334 0000913 261.6111  98.4637 15.27585565188653","mean_motion":15.27585565,"eccentricity":9.13e-5,"inclination_deg":43.0038,"raan_deg":61.0334,"arg_perigee_deg":261.6111,"mean_anomaly_deg":98.4637,"bstar":6.2834e-5,"rev_number":18865,"period_min":94.266405299529,"perigee_km":482.40600770906,"apogee_km":483.65885724743,"semimajor_km":6861.1694324782,"source":"CELESTRAK","updated_at":"2026-05-25T13:38:17.723381Z"}}